Regional Weather Roundup
Issued by NWS

Home | Current Version | Previous Version | Text Only | Print | Product List | Glossary Off
Versions: 1 2 3 4 5 6 7 8 9 10 11 12 13 14 15 16 17 18 19 20 21 22 23 24 25 26 27 28 29 30 31 32 33 34 35 36 37 38 39 40 41 42 43 44 45 46 47 48 49 50

000
ASUS45 KBOU 201307
RWRCO

WEATHER ROUNDUP FOR COLORADO
NATIONAL WEATHER SERVICE DENVER/BOULDER CO
700 AM MDT THU JUL 20 2017

NOTE: "FAIR" INDICATES FEW OR NO CLOUDS BELOW 12000 FEET WITH NO
SIGNIFICANT WEATHER AND/OR OBSTRUCTIONS TO VISIBILITY.

COZ001>005-013-030-031-201400-
...NORTHWEST COLORADO...

CITY           SKY/WX    TMP DP  RH WIND       PRES   REMARKS
CRAIG          FAIR      57  52  83 CALM      30.30R
HAYDEN         FAIR      57  48  72 E8        30.32R
MEEKER         FAIR      57  55  93 CALM      30.30R
RABBIT EARS PA FAIR      48  46  93 S5        30.60R
STEAMBOAT SPGS FAIR      54  51  88 CALM      30.34R
WALDEN         FAIR      50  45  81 CALM      30.44R
$$

COZ006>008-011-201400-
...WEST CENTRAL VALLEYS...

CITY           SKY/WX    TMP DP  RH WIND       PRES   REMARKS
GRAND JUNCTION FAIR      68  61  78 CALM      30.20R
MONTROSE       FAIR      61  56  83 S6        30.30R
EAGLE          SUNNY     61  55  82 NE5       30.32F
RIFLE          FAIR      64  58  80 CALM      30.26R
DELTA          FAIR      68  57  68 CALM      30.25S
NUCLA          FAIR      63  52  67 E9        30.32S
$$

COZ017>023-064>068-201400-
...SOUTHWEST COLORADO...

CITY           SKY/WX    TMP DP  RH WIND       PRES   REMARKS
DURANGO        FAIR      61  48  62 N6        30.35R
CORTEZ         FAIR      61  55  81 N5        30.27F
PAGOSA SPRINGS FAIR      55  52  88 CALM      30.44R
TELLURIDE      FAIR      55  47  75 SE6       30.54R
WOLF CREEK PAS FAIR      48  41  76 S7        30.78S
$$

COZ009-010-012-014-032>034-037-058>063-201400-
...CENTRAL COLORADO...

CITY           SKY/WX    TMP DP  RH WIND       PRES   REMARKS
ASPEN          FAIR      56  49  77 S5        30.40S
BUENA VISTA    FAIR      54  48  82 NW3       30.47S
COPPER MTN     FAIR      55  37  50 SW7       30.73S
BERTHOUD PASS  FAIR      46  32  57 NW17G25   30.76R
COTTONWOOD PAS FAIR      59  43  55 W5        30.59S
GUNNISON       FAIR      53  48  83 N5        30.46R
KREMMLING      FAIR      59  54  82 CALM      30.42S
LEADVILLE      FAIR      46  43  89 CALM      30.58R
MONARCH PASS   FAIR      52  41  66 E3        30.84S
SALIDA         FAIR      57  48  72 CALM      30.50F
SUNLIGHT       FAIR      52  41  66 S9        30.65R
WILKERSON PASS FAIR      52  37  58 CALM      30.71S
$$

COZ069>075-201400-
...SAN LUIS VALLEY/SANGRE DE CRISTO MOUNTAINS...

CITY           SKY/WX    TMP DP  RH WIND       PRES   REMARKS
ALAMOSA        FAIR      57  51  80 SE6       30.42R
DEL NORTE      FAIR      58  49  72 CALM      30.46S
LA VETA PASS   NOT AVBL
SAGUACHE         N/A    N/A N/A N/A MISG        N/A
$$

COZ035-036-038>040-201400-
...NORTHERN COLORADO FRONT RANGE...

CITY           SKY/WX    TMP DP  RH WIND       PRES   REMARKS
DENVER INTL AP FAIR      69  56  62 N6        30.25S
DMNS CITY PARK   N/A     70  57  64 E7        30.26R
AURORA         MOSUNNY   66  56  70 CALM      30.28R
FRONT RANGE AP MOSUNNY   66  57  72 W3        30.26S
ERIE MUNI ARPT FAIR      65  55  70 CALM      30.24R HAZE
BOULDER MUN AP FAIR      70  50  49 CALM      30.24S
CENTENNIAL     FAIR      65  57  75 S5        30.28S
BROOMFIELD     FAIR      68  52  56 CALM      30.28R
FORT COLLINS   FAIR      69  56  62 SE9       30.24R
LONGMONT       FAIR      67  57  70 CALM      30.25S
$$

COZ041-046-047-076>085-087-088-201400-
...PIKES PEAK/PALMER DIVIDE AND SOUTHERN FOOTHILLS...

CITY           SKY/WX    TMP DP  RH WIND       PRES   REMARKS
COLO. SPRINGS  FAIR      69  54  58 NW12      30.30R
A. F. ACADEMY  FAIR      62  53  71 N9        30.32R
SCHRIEVER AFB  FAIR      68  52  56 NW13      30.29R
CHEYENNE MTN   NOT AVBL
ELLICOTT       FAIR     N/A N/A N/A N13       30.26S
FALCON           N/A     66  51  58 N13       30.34S
FORT CARSON    FAIR      70  52  53 NW12      30.26R
LIMON          FAIR      65  60  84 NW9       30.24R
MONUMENT HILL  FAIR      61  52  72 W3        30.38R
CANON CITY     SUNNY     72  55  56 NW5       30.23S
WALSENBURG     FAIR      70  52  52 CALM      30.29S
TRINIDAD       FAIR      71  48  43 W10       30.27R
$$

COZ042>045-048>051-090-091-201400-
...NORTHEAST COLORADO...

CITY           SKY/WX    TMP DP  RH WIND       PRES   REMARKS
GREELEY ARPT   FAIR      69  60  73 CALM      30.23R
AKRON          FAIR      68  61  78 N9        30.18R
BURLINGTON     FAIR      69  62  78 NW13      30.11R
WRAY           NOT AVBL
YUMA           FAIR      66  54  63 N9        30.13S
STERLING       FAIR      70  63  78 N3        30.14R
HOLYOKE        FAIR      73  64  73 N6        30.11R
FORT MORGAN    FAIR      68  58  70 N7        30.20S
$$

COZ086-089-092>099-201400-
...SOUTHEAST COLORADO...

CITY           SKY/WX    TMP DP  RH WIND       PRES   REMARKS
PUEBLO         FAIR      77  53  43 N12       30.17S
LA JUNTA       FAIR      74  57  55 W8        30.14R
LAMAR          FAIR      70  57  63 W9        30.06R
SPRINGFIELD      N/A     72  58  61 SW12      30.14R
$$



USA.gov is the U.S. government's official web portal to all federal, state and local government web resources and services.